Wind_Speed
6 5 4 3 3 2 2 2 3 2 2 2 1 1 1 1 1 2 2 2 3 3 3 4 4 3 3 3 4 5 5 5 5 4 4 4 5 5 5 5 5 4 4
7 6 4 4 3 3 3 3 3 3 2 2 2 2 2 2 1 2 2 2 2 2 3 3 3 4 4 4 4 4 4 4 4 5 5 5 5 5 5 5 5 5 5
8 6 5 5 4 4 4 3 3 3 3 3 2 2 2 2 1 1 2 2 2 2 2 3 3 3 3 4 4 3 3 4 4 5 5 5 5 5 6 6 6 6 6
8 7 6 6 6 5 5 4 4 4 3 3 3 3 2 2 2 1 2 2 1 1 1 2 3 3 3 3 2 2 2 3 3 4 4 5 4 4 5 5 6 6 7
9 9 8 7 7 6 6 5 4 4 3 3 3 3 3 2 2 2 1 1 1 1 1 1 2 2 2 2 1 2 2 2 3 3 3 3 4 4 5 5 6 6 6
10 10 9 8 7 7 6 5 4 4 4 4 4 3 3 2 2 2 2 1 1 1 1 1 2 2 2 2 1 2 2 3 3 3 3 3 3 4 4 4 4 5 6
11 10 10 9 8 8 7 6 6 5 5 4 4 3 3 2 2 2 2 2 2 2 1 1 1 1 2 1 2 2 3 3 3 3 3 3 3 3 4 4 4 5 5
12 12 11 11 10 9 8 7 6 6 5 5 5 4 3 3 2 2 2 2 2 2 1 1 1 1 1 1 1 2 2 2 3 3 3 3 4 4 4 4 5 5 5
14 13 13 12 11 10 8 8 7 6 5 6 5 4 4 4 3 3 3 3 2 2 1 1 1 1 1 1 1 1 2 2 3 3 4 4 4 5 5 5 6 6 6
15 14 13 12 11 10 10 9 9 8 7 7 6 6 5 5 4 3 3 3 3 2 2 2 2 2 2 2 2 2 2 2 3 3 4 4 5 5 6 7 7 7 8
15 14 14 13 12 11 11 10 10 10 9 8 7 7 6 6 5 5 4 3 3 3 3 3 3 4 3 3 3 3 3 3 4 4 5 5 6 6 7 8 8 9 9
16 16 15 14 13 13 12 12 12 11 10 10 9 8 8 7 6 6 5 4 4 4 4 4 4 4 4 4 4 4 4 4 4 5 6 6 7 8 8 9 9 10 10
16 16 16 15 14 14 13 13 13 12 12 11 10 10 9 8 8 7 6 5 5 5 5 5 5 5 5 5 5 5 5 6 6 7 7 8 9 9 10 11 11 12 12
17 17 16 16 15 14 14 14 14 13 13 13 12 11 11 10 9 9 8 7 7 7 7 7 6 6 6 6 6 6 7 8 8 9 10 10 11 12 12 13 13 14 15
17 16 16 16 16 15 15 15 15 14 14 13 13 13 12 11 10 10 9 9 8 8 8 8 8 7 7 7 8 8 9 10 11 12 12 13 14 14 14 15 15 16 17
18 18 18 17 17 17 16 16 16 15 15 14 14 14 14 13 12 11 11 10 10 9 9 9 9 9 9 9 10 10 11 12 13 14 14 15 15 16 16 17 18 19 19
18 19 19 19 19 19 18 17 17 17 16 16 15 15 15 14 14 13 12 12 11 11 11 11 11 10 11 11 12 13 13 14 15 16 16 17 17 18 19 19 20 21 22
19 19 20 21 21 20 20 19 18 18 18 17 17 16 16 16 15 14 14 13 13 13 13 13 13 12 13 13 14 15 16 17 17 18 19 19 20 20 21 22 23 24 25
20 20 20 22 22 22 21 20 20 19 19 19 18 18 18 17 16 16 15 15 15 15 15 15 15 15 16 16 17 18 18 19 20 21 21 22 22 23 24 25 25 26 27
20 20 21 22 22 22 22 22 21 21 21 20 20 20 19 19 18 18 17 17 17 17 17 17 18 18 19 19 20 21 21 22 23 24 24 25 25 26 27 28 28 29 29
19 20 20 20 22 22 22 22 22 22 22 22 22 21 21 20 20 20 19 19 20 20 20 21 21 22 22 23 23 24 25 26 26 27 28 28 29 29 30 30 31 31 32
19 20 21 21 21 21 22 23 24 23 23 23 22 22 22 22 22 22 23 23 23 23 23 24 24 25 25 25 26 27 28 28 29 29 30 31 31 31 32 33 33 34 35
19 19 20 20 21 22 22 24 24 24 24 24 24 24 24 24 24 24 25 25 25 26 26 27 27 27 28 28 29 30 30 31 31 32 32 33 34 34 35 35 36 37 38
19 19 19 20 21 22 22 23 23 23 24 24 24 24 25 25 26 26 26 26 27 28 29 30 30 31 31 31 32 32 32 33 34 34 35 36 37 37 38 39 39 40 41
19 20 20 21 21 21 21 22 22 23 22 23 24 24 25 26 27 28 28 29 30 30 31 32 32 32 33 33 35 35 36 36 36 37 38 39 40 41 41 41 42 42 43
19 19 19 19 20 21 21 21 21 22 22 23 24 26 27 28 29 30 31 31 32 33 33 33 34 35 35 36 37 38 38 39 39 39 40 41 42 43 43 43 44 45 46
Wind_Direction
197 198 199 200 209 207 195 187 182 191 193 198 214 246 257 252 259 256 260 250 240 249 249 261 262 270 274 285 279 268 263 264 264 258 263 267 277 271 258 247 244 253 264
205 208 211 215 211 205 202 199 195 202 212 219 235 247 254 257 262 255 249 247 248 253 262 277 282 285 288 292 289 278 268 268 271 272 272 275 275 272 270 264 256 260 269
209 212 218 218 210 204 206 208 209 213 221 223 229 239 249 250 240 252 236 229 241 262 282 300 306 307 303 292 292 284 274 274 275 277 275 278 285 282 273 270 262 267 272
210 214 220 214 208 205 210 211 210 222 229 224 225 236 244 239 227 241 229 229 246 269 294 304 313 313 315 315 314 315 297 294 288 285 284 277 282 288 284 281 273 276 282
217 218 217 214 209 210 210 212 217 228 230 231 238 242 242 236 237 253 254 246 255 263 300 316 334 331 333 333 331 330 327 325 310 299 302 292 289 294 293 287 285 286 291
225 222 217 215 213 212 212 218 223 229 226 233 236 235 237 234 236 240 245 249 256 257 297 327 338 338 336 342 337 346 350 352 353 341 330 323 312 312 308 307 305 301 302
226 222 219 217 216 218 220 226 225 223 220 224 225 225 229 229 233 245 253 259 263 269 281 298 323 336 343 338 346 359 1 10 12 6 1 353 344 335 331 325 317 315 317
225 224 222 220 217 221 224 227 227 224 222 216 213 218 222 224 226 246 249 251 251 252 261 271 316 333 344 344 345 354 352 353 349 350 349 354 354 351 343 337 335 331 330
224 225 224 223 221 224 225 227 227 226 223 214 213 221 224 227 233 242 242 241 245 253 261 271 292 302 311 314 337 334 337 341 342 344 346 341 341 338 336 331 333 330 323
224 224 224 225 226 227 228 231 231 229 226 221 219 224 228 229 233 234 235 238 245 254 263 267 276 284 292 287 303 312 318 330 336 340 340 338 336 333 329 325 324 321 317
224 224 226 226 227 230 232 232 230 226 227 225 222 225 227 227 230 232 238 242 249 257 259 268 275 280 285 291 300 308 301 311 321 325 326 327 327 326 325 324 322 319 316
225 226 227 228 229 232 235 235 231 227 228 226 227 229 230 231 232 236 242 246 253 258 262 269 273 276 282 289 296 302 304 304 308 311 312 315 316 317 317 317 318 317 317
228 227 229 230 233 236 236 235 233 231 230 231 232 231 231 233 235 239 242 245 253 256 260 265 269 275 281 284 288 292 296 298 299 301 304 308 310 310 310 311 312 312 312
232 231 232 232 234 236 236 234 232 232 234 236 236 234 234 237 240 242 246 250 254 257 260 263 265 271 274 277 281 287 291 295 297 299 302 304 305 306 306 306 307 307 307
235 236 237 237 237 237 238 236 234 235 236 238 239 238 237 239 242 246 249 253 257 259 261 263 266 269 271 275 282 287 291 294 297 297 297 298 299 301 301 302 302 302 303
236 239 242 242 240 239 238 236 235 236 238 239 240 241 240 241 244 248 250 254 256 262 264 265 267 270 273 280 285 289 292 295 297 296 296 296 296 297 297 298 300 301 301
240 243 244 242 241 241 240 239 238 239 241 243 244 244 244 246 245 247 249 253 257 262 265 266 268 271 276 282 286 289 291 293 294 296 296 296 296 296 296 296 298 300 300
242 243 244 243 241 242 240 238 240 241 243 245 246 245 247 247 249 249 251 254 258 262 264 266 268 273 277 282 285 288 290 292 293 295 296 295 295 295 295 296 297 297 298
243 242 243 243 242 240 239 239 241 242 245 246 246 247 247 249 250 251 254 257 260 262 263 265 268 272 277 281 284 287 290 292 292 293 293 293 293 294 295 295 295 296 296
244 243 244 243 241 240 239 240 242 245 247 247 246 247 247 250 251 254 258 259 261 262 264 267 269 273 277 281 284 287 289 290 291 292 291 291 292 293 294 294 295 296 296
243 243 244 242 240 240 239 242 243 245 246 248 248 248 249 251 254 256 259 261 263 264 266 269 270 274 277 281 283 286 288 289 289 290 290 291 292 292 293 293 294 294 294
244 244 244 243 242 241 240 242 245 246 247 248 249 249 250 253 256 258 260 262 264 266 268 270 272 275 277 280 282 285 286 288 288 289 290 291 291 292 292 292 293 293 293
245 245 244 244 245 244 242 242 246 249 251 252 252 251 252 256 258 261 262 263 263 266 268 271 274 276 278 280 282 284 285 287 288 289 289 290 291 291 292 292 292 291 292
247 247 248 247 246 246 244 244 248 250 252 252 252 253 256 259 260 262 263 264 266 267 269 272 275 277 279 281 282 284 284 285 287 288 289 290 290 290 291 291 291 291 291
249 249 249 249 249 247 248 249 249 251 252 254 255 257 259 260 261 262 264 265 267 269 271 273 276 279 280 281 283 283 283 285 287 288 288 289 289 290 290 291 290 290 291
253 252 249 248 247 248 248 250 252 253 255 256 258 260 261 263 264 264 266 268 269 270 272 274 276 278 280 281 283 284 285 286 286 287 288 289 289 289 289 290 289 290 290
Height
5897 5898 5898 5898 5898 5898 5898 5899 5899 5899 5899 5899 5899 5899 5899 5899 5899 5899 5898 5898 5898 5899 5898 5898 5898 5898 5898 5898 5897 5897 5897 5898 5898 5898 5898 5898 5898 5898 5898 5898 5898 5899 5899
5896 5897 5898 5898 5898 5898 5898 5898 5899 5899 5899 5899 5899 5899 5899 5899 5899 5898 5898 5898 5898 5898 5898 5898 5898 5897 5897 5897 5897 5897 5897 5897 5897 5897 5897 5897 5897 5897 5897 5897 5897 5898 5898
5895 5896 5897 5897 5897 5898 5898 5898 5898 5898 5899 5899 5899 5899 5899 5898 5898 5898 5898 5898 5898 5898 5898 5898 5897 5897 5897 5897 5896 5896 5896 5896 5896 5896 5896 5897 5897 5896 5896 5896 5896 5896 5896
5894 5895 5896 5896 5897 5897 5897 5898 5898 5898 5898 5898 5898 5899 5899 5898 5898 5898 5898 5898 5898 5897 5897 5897 5897 5897 5896 5896 5896 5896 5896 5896 5896 5896 5896 5896 5896 5896 5895 5895 5895 5895 5895
5892 5894 5895 5895 5896 5896 5897 5897 5897 5898 5898 5898 5898 5898 5898 5898 5898 5898 5898 5898 5897 5897 5897 5897 5897 5896 5896 5896 5896 5896 5896 5895 5895 5895 5895 5895 5895 5895 5895 5894 5894 5894 5894
5891 5892 5893 5894 5895 5895 5896 5896 5897 5897 5897 5897 5898 5898 5898 5898 5898 5898 5898 5898 5897 5897 5897 5897 5897 5896 5896 5896 5896 5896 5896 5895 5895 5895 5895 5894 5894 5894 5894 5894 5893 5893 5893
5889 5890 5892 5893 5893 5894 5895 5896 5896 5896 5896 5897 5897 5897 5898 5898 5898 5898 5897 5897 5897 5897 5897 5897 5897 5897 5896 5896 5896 5896 5896 5895 5895 5895 5894 5894 5894 5893 5893 5893 5892 5892 5891
5887 5888 5890 5891 5892 5893 5894 5895 5895 5895 5895 5896 5897 5897 5897 5898 5898 5897 5898 5897 5897 5897 5897 5897 5897 5897 5897 5896 5896 5896 5896 5895 5895 5895 5894 5894 5894 5893 5893 5892 5892 5891 5891
5885 5886 5887 5889 5890 5892 5893 5893 5894 5895 5895 5896 5896 5897 5897 5897 5897 5897 5897 5897 5897 5897 5897 5897 5897 5897 5897 5896 5896 5896 5896 5895 5895 5894 5894 5894 5893 5893 5892 5892 5891 5890 5890
5882 5884 5885 5887 5888 5889 5891 5892 5893 5893 5894 5895 5896 5896 5896 5897 5897 5897 5897 5897 5897 5897 5897 5897 5897 5897 5897 5896 5896 5896 5895 5895 5895 5894 5894 5893 5893 5892 5892 5891 5890 5890 5889
5880 5882 5883 5885 5886 5888 5889 5890 5891 5892 5893 5894 5895 5895 5895 5896 5896 5896 5897 5897 5897 5897 5897 5897 5897 5897 5896 5896 5896 5895 5895 5895 5894 5894 5893 5893 5892 5891 5891 5890 5889 5888 5887
5878 5879 5881 5883 5884 5885 5887 5888 5889 5890 5891 5892 5893 5894 5894 5895 5895 5895 5896 5896 5896 5896 5896 5896 5896 5896 5895 5895 5895 5895 5894 5894 5894 5893 5892 5892 5891 5890 5889 5888 5887 5886 5885
5875 5876 5878 5880 5881 5883 5884 5886 5887 5888 5889 5891 5891 5892 5893 5893 5894 5894 5895 5895 5895 5895 5895 5895 5895 5895 5894 5894 5894 5894 5893 5893 5892 5892 5891 5890 5890 5889 5888 5886 5885 5884 5883
5871 5873 5875 5877 5879 5880 5881 5883 5884 5885 5887 5888 5889 5890 5891 5891 5892 5893 5893 5893 5894 5894 5894 5894 5893 5893 5893 5893 5892 5892 5892 5891 5891 5890 5889 5888 5887 5886 5885 5884 5883 5882 5880
5868 5870 5872 5874 5876 5877 5879 5880 5881 5883 5884 5885 5886 5887 5888 5889 5890 5890 5891 5891 5892 5892 5892 5892 5892 5891 5891 5891 5890 5890 5890 5889 5888 5888 5887 5886 5885 5883 5882 5881 5880 5878 5877
5865 5867 5869 5870 5872 5874 5876 5877 5879 5880 5881 5882 5884 5885 5885 5886 5887 5888 5888 5889 5889 5890 5889 5889 5889 5889 5889 5888 5888 5887 5887 5886 5885 5885 5884 5882 5881 5880 5879 5877 5876 5874 5873
5861 5863 5864 5866 5868 5870 5872 5874 5875 5877 5878 5879 5880 5881 5882 5883 5884 5885 5886 5886 5886 5886 5887 5886 5886 5886 5886 5885 5885 5884 5884 5883 5882 5881 5880 5879 5877 5876 5874 5873 5871 5870 5868
5857 5859 5860 5862 5864 5866 5868 5870 5872 5873 5874 5876 5877 5878 5879 5880 5881 5881 5882 5883 5883 5883 5883 5883 5883 5883 5882 5882 5882 5881 5880 5879 5878 5877 5875 5874 5873 5871 5869 5868 5866 5864 5862
5853 5854 5856 5857 5859 5861 5863 5866 5867 5869 5870 5872 5873 5874 5875 5876 5877 5878 5878 5879 5879 5879 5880 5880 5879 5879 5879 5878 5877 5876 5875 5874 5873 5871 5870 5869 5867 5865 5864 5862 5860 5858 5856
5848 5850 5851 5853 5855 5857 5859 5861 5863 5864 5866 5867 5869 5870 5871 5872 5873 5874 5874 5875 5875 5875 5875 5875 5875 5875 5874 5873 5872 5871 5870 5869 5867 5866 5864 5862 5861 5859 5857 5855 5853 5851 5849
5844 5845 5847 5848 5850 5852 5854 5856 5858 5860 5861 5862 5864 5865 5866 5867 5868 5869 5870 5870 5870 5870 5870 5870 5870 5869 5869 5868 5867 5865 5864 5862 5861 5859 5857 5855 5853 5852 5849 5847 5845 5843 5840
5840 5841 5843 5844 5846 5848 5850 5852 5854 5855 5856 5857 5859 5860 5861 5862 5863 5863 5864 5864 5865 5865 5865 5864 5864 5863 5863 5862 5860 5859 5857 5856 5854 5852 5850 5848 5846 5844 5841 5839 5837 5834 5832
5836 5837 5838 5840 5841 5843 5845 5847 5849 5850 5851 5852 5853 5855 5856 5857 5857 5857 5858 5858 5858 5858 5858 5858 5857 5856 5856 5854 5853 5851 5850 5848 5846 5844 5842 5840 5837 5835 5832 5830 5827 5825 5822
5831 5833 5834 5835 5837 5839 5841 5842 5843 5844 5846 5847 5848 5849 5850 5850 5851 5851 5851 5851 5851 5851 5851 5850 5850 5849 5848 5846 5845 5843 5841 5839 5837 5835 5833 5831 5828 5825 5823 5820 5817 5814 5812
5827 5828 5830 5831 5833 5834 5836 5837 5838 5839 5840 5841 5842 5843 5843 5844 5844 5844 5844 5844 5844 5843 5843 5842 5842 5841 5839 5838 5836 5834 5832 5830 5829 5826 5823 5821 5818 5815 5812 5809 5806 5803 5800
5823 5824 5825 5826 5828 5829 5831 5832 5833 5834 5835 5835 5836 5836 5836 5837 5837 5837 5837 5836 5836 5835 5834 5834 5833 5832 5830 5828 5826 5824 5822 5820 5818 5816 5813 5810 5807 5803 5801 5798 5794 5791 5787